Weather History for KMMH - January, 2014

Change the Weather History Date:

Friday, January 10, 2014

  Actual Average (KBIH) Record (KBIH)
Temperature  
Mean Temperature 44 °F 38 °F  
Max Temperature 62 °F 54 °F 75 °F (2014)
Min Temperature 24 °F 23 °F -7 °F (1974)
Degree Days  
Heating Degree Days 21 27  
Month to date heating degree days 272  
Since 1 July heating degree days 2019  
Cooling Degree Days 0 0  
Month to date cooling degree days 0  
Year to date cooling degree days 0  
Moisture  
Dew Point 18 °F    
Average Humidity 44    
Maximum Humidity 80    
Minimum Humidity 15    
Precipitation  
Precipitation 0.00 in 0.04 in 1.78 in (1995)
Month to date precipitation 0.41  
Year to date precipitation 0.41  
Snow  
Snow 0.00 in 0.20 in 4.00 in (1955)
Month to date snowfall 1.3  
Since 1 July snowfall 3.0  
Snow Depth -    
Sea Level Pressure  
Sea Level Pressure 30.26 in    
Wind  
Wind Speed 5 mph (NW)    
Max Wind Speed 13 mph    
Max Gust Speed 18 mph    
Visibility 10 miles    
Events      
T = Trace of Precipitation, MM = Missing Value Source: NWS Daily Summary

Daily Weather History Graph

Daily Weather History Graph

Search for Another Location

Airport or City:

Trip Planner

Search our weather history database for the weather conditions in past years. The results will help you decide how hot, cold, wet, or windy it might be!

Date:

Astronomy

Jan. 10, 2014 Rise Set
Actual Time 7:10 AM PST 4:55 PM PST
Civil Twilight 6:41 AM PST 5:24 PM PST
Nautical Twilight 6:09 AM PST 5:57 PM PST
Astronomical Twilight 5:37 AM PST 6:28 PM PST
Moon 1:01 PM PST (1/10) 2:24 AM PST (1/10)
Length of Visible Light 10h 43m
Length of Day
9h 45m
Waxing Gibbous, 76% of the Moon is Illuminated
Jan 10
Waxing Gibbous
Jan 15
Full
Jan 23
Last Quarter
Jan 30
New
Feb 6
First Quarter

Hourly Weather History & Observations

Time (PST) Temp. Windchill Dew Point Humidity Pressure Visibility Wind Dir Wind Speed Gust Speed Precip Events Conditions
12:15 AM 28.4 °F 22.2 °F 21.2 °F 74% 30.25 in 10.0 mi North 5.8 mph - N/A   Clear
12:35 AM 26.6 °F 22.6 °F 21.2 °F 80% 30.25 in 10.0 mi NNW 3.5 mph - N/A   Clear
12:55 AM 30.2 °F 25.4 °F 23.0 °F 75% 30.24 in 10.0 mi NNW 4.6 mph - N/A   Clear
1:15 AM 30.2 °F 25.4 °F 21.2 °F 69% 30.25 in 10.0 mi North 4.6 mph - N/A   Clear
1:35 AM 30.2 °F 25.4 °F 21.2 °F 69% 30.25 in 10.0 mi WSW 4.6 mph - N/A   Clear
1:55 AM 32.0 °F 27.5 °F 21.2 °F 64% 30.25 in 10.0 mi NNW 4.6 mph - N/A   Clear
2:15 AM 33.8 °F 29.6 °F 21.2 °F 60% 30.25 in 10.0 mi WNW 4.6 mph - N/A   Clear
2:35 AM 35.6 °F 29.2 °F 21.2 °F 56% 30.24 in 10.0 mi NNW 8.1 mph - N/A   Clear
2:55 AM 33.8 °F 27.0 °F 19.4 °F 56% 30.24 in 10.0 mi West 8.1 mph - N/A   Clear
3:15 AM 33.8 °F - 19.4 °F 56% 30.24 in 10.0 mi Calm Calm - N/A   Clear
3:35 AM 33.8 °F - 19.4 °F 56% 30.24 in 10.0 mi Calm Calm - N/A   Clear
3:55 AM 30.2 °F 25.4 °F 17.6 °F 60% 30.24 in 10.0 mi NW 4.6 mph - N/A   Clear
4:15 AM 30.2 °F 26.7 °F 17.6 °F 60% 30.23 in 10.0 mi North 3.5 mph - N/A   Clear
4:35 AM 30.2 °F - 17.6 °F 60% 30.24 in 10.0 mi Calm Calm - N/A   Clear
4:55 AM 28.4 °F 23.3 °F 17.6 °F 64% 30.24 in 10.0 mi NW 4.6 mph - N/A   Clear
5:15 AM 30.2 °F 25.4 °F 17.6 °F 60% 30.24 in 10.0 mi NNW 4.6 mph - N/A   Clear
5:35 AM 30.2 °F 23.4 °F 17.6 °F 60% 30.25 in 10.0 mi North 6.9 mph - N/A   Clear
5:55 AM 32.0 °F 26.4 °F 15.8 °F 51% 30.26 in 10.0 mi West 5.8 mph - N/A   Clear
6:15 AM 32.0 °F 26.4 °F 15.8 °F 51% 30.27 in 10.0 mi NW 5.8 mph - N/A   Clear
6:35 AM 32.0 °F 26.4 °F 15.8 °F 51% 30.27 in 10.0 mi North 5.8 mph - N/A   Clear
6:55 AM 32.0 °F 28.7 °F 14.0 °F 48% 30.27 in 10.0 mi WNW 3.5 mph - N/A   Clear
7:15 AM 32.0 °F 26.4 °F 14.0 °F 48% 30.28 in 10.0 mi West 5.8 mph - N/A   Clear
7:35 AM 32.0 °F - 14.0 °F 48% 30.28 in 10.0 mi Calm Calm - N/A   Clear
7:55 AM 32.0 °F 27.5 °F 15.8 °F 51% 30.27 in 10.0 mi WNW 4.6 mph - N/A   Clear
8:15 AM 37.4 °F 31.4 °F 15.8 °F 41% 30.27 in 10.0 mi West 8.1 mph - N/A   Clear
8:35 AM 42.8 °F - 15.8 °F 34% 30.28 in 10.0 mi Calm Calm - N/A   Clear
8:55 AM 48.2 °F - 14.0 °F 25% 30.29 in 10.0 mi Calm Calm - N/A   Clear
9:15 AM 50.0 °F - 14.0 °F 24% 30.30 in 10.0 mi WNW 4.6 mph - N/A   Clear
9:35 AM 51.8 °F - 15.8 °F 24% 30.30 in 10.0 mi Calm Calm - N/A   Clear
9:55 AM 53.6 °F - 15.8 °F 22% 30.30 in 10.0 mi NNW 4.6 mph - N/A   Clear
10:15 AM 57.2 °F - 15.8 °F 20% 30.30 in 10.0 mi NNE 4.6 mph - N/A   Clear
10:35 AM 59.0 °F - 15.8 °F 19% 30.29 in 10.0 mi NNW 4.6 mph - N/A   Clear
10:55 AM 59.0 °F - 15.8 °F 19% 30.28 in 10.0 mi Calm Calm - N/A   Clear
11:15 AM 59.0 °F - 14.0 °F 17% 30.27 in 10.0 mi Calm Calm - N/A   Clear
11:35 AM 59.0 °F - 14.0 °F 17% 30.26 in 10.0 mi North 4.6 mph - N/A   Clear
11:55 AM 59.0 °F - 15.8 °F 19% 30.24 in 10.0 mi West 4.6 mph - N/A   Clear
12:15 PM 60.8 °F - 15.8 °F 17% 30.24 in 10.0 mi NNW 10.4 mph - N/A   Clear
12:35 PM 60.8 °F - 15.8 °F 17% 30.23 in 10.0 mi North 6.9 mph - N/A   Clear
12:55 PM 60.8 °F - 15.8 °F 17% 30.21 in 10.0 mi NNW 9.2 mph - N/A   Clear
1:15 PM 60.8 °F - 14.0 °F 16% 30.20 in 10.0 mi North 5.8 mph - N/A   Clear
1:35 PM 60.8 °F - 14.0 °F 16% 30.19 in 10.0 mi NW 8.1 mph - N/A   Clear
1:55 PM 62.6 °F - 14.0 °F 15% 30.18 in 10.0 mi NNW 9.2 mph - N/A   Clear
2:15 PM 60.8 °F - 14.0 °F 16% 30.18 in 10.0 mi NNW 8.1 mph - N/A   Clear
2:35 PM 60.8 °F - 14.0 °F 16% 30.18 in 10.0 mi North 11.5 mph 17.3 mph N/A   Clear
2:55 PM 59.0 °F - 14.0 °F 17% 30.18 in 10.0 mi NNW 11.5 mph - N/A   Clear
3:15 PM 57.2 °F - 14.0 °F 18% 30.19 in 10.0 mi NNW 12.7 mph - N/A   Clear
3:35 PM 57.2 °F - 15.8 °F 20% 30.20 in 10.0 mi North 12.7 mph 18.4 mph N/A   Clear
3:55 PM 55.4 °F - 17.6 °F 23% 30.22 in 10.0 mi NW 11.5 mph - N/A   Clear
4:15 PM 51.8 °F - 19.4 °F 28% 30.23 in 10.0 mi WNW 10.4 mph - N/A   Clear
4:35 PM 50.0 °F - 19.4 °F 30% 30.23 in 10.0 mi WNW 8.1 mph - N/A   Clear
4:55 PM 46.4 °F 42.4 °F 19.4 °F 34% 30.24 in 10.0 mi West 8.1 mph - N/A   Clear
5:15 PM 44.6 °F 39.7 °F 19.4 °F 37% 30.24 in 10.0 mi West 9.2 mph - N/A   Clear
5:35 PM 42.8 °F 37.5 °F 21.2 °F 42% 30.25 in 10.0 mi West 9.2 mph - N/A   Clear
5:55 PM 42.8 °F 37.5 °F 21.2 °F 42% 30.25 in 10.0 mi West 9.2 mph - N/A   Clear
6:15 PM 41.0 °F 36.4 °F 21.2 °F 45% 30.26 in 10.0 mi West 6.9 mph - N/A   Clear
6:35 PM 39.2 °F 35.0 °F 21.2 °F 49% 30.27 in 10.0 mi West 5.8 mph - N/A   Clear
6:55 PM 39.2 °F 37.0 °F 21.2 °F 49% 30.28 in 10.0 mi WNW 3.5 mph - N/A   Clear
7:15 PM 41.0 °F 34.7 °F 21.2 °F 45% 30.28 in 10.0 mi West 10.4 mph - N/A   Clear
7:35 PM 39.2 °F 33.6 °F 23.0 °F 52% 30.28 in 10.0 mi West 8.1 mph - N/A   Clear
7:55 PM 37.4 °F 32.8 °F 23.0 °F 56% 30.28 in 10.0 mi West 5.8 mph - N/A   Clear
8:15 PM 35.6 °F 32.8 °F 21.2 °F 56% 30.29 in 10.0 mi WNW 3.5 mph - N/A   Clear
8:35 PM 35.6 °F 30.7 °F 23.0 °F 60% 30.29 in 10.0 mi West 5.8 mph - N/A   Clear
8:55 PM 35.6 °F - 23.0 °F 60% 30.30 in 10.0 mi Calm Calm - N/A   Clear
9:15 PM 33.8 °F 29.6 °F 21.2 °F 60% 30.30 in 10.0 mi NW 4.6 mph - N/A   Clear
9:35 PM 32.0 °F - 21.2 °F 64% 30.31 in 10.0 mi Calm Calm - N/A   Clear
9:55 PM 32.0 °F - 21.2 °F 64% 30.31 in 10.0 mi Calm Calm - N/A   Clear
10:15 PM 30.2 °F 25.4 °F 19.4 °F 64% 30.31 in 10.0 mi North 4.6 mph - N/A   Clear
10:35 PM 28.4 °F 24.6 °F 19.4 °F 69% 30.31 in 10.0 mi North 3.5 mph - N/A   Clear
10:55 PM 28.4 °F - 19.4 °F 69% 30.31 in 10.0 mi Calm Calm - N/A   Clear
11:15 PM 26.6 °F 21.2 °F 17.6 °F 69% 30.31 in 10.0 mi North 4.6 mph - N/A   Clear
11:35 PM 28.4 °F 23.3 °F 19.4 °F 69% 30.31 in 10.0 mi WNW 4.6 mph - N/A   Clear
11:55 PM 24.8 °F 20.5 °F 17.6 °F 74% 30.31 in 10.0 mi NNE 3.5 mph - N/A   Clear